PACCTY-2 Weather Reports


Display with metric or nautical units.
time (UTC)temp
F
wind
direction
speed
MPH
gust
MPH
rain 1hr
in
rain 24hr
in
rain mn
in
humidity
%
barometer
mb
20260504045149 53 242 18.0 28.0 0.00 0.01 0.00
20260504044649 53 245 20.0 27.0 0.00 0.01 0.00
20260504044154 53 235 20.0 27.0 0.00 0.01 0.00
20260504042644 53 226 18.0 26.0 0.00 0.01 0.00
20260504041643 53 242 17.0 26.0 0.00 0.01 0.00
20260504041141 53 250 18.0 25.0 0.00 0.01 0.00
20260504033133 53 249 17.0 25.0 0.00 0.01 0.00
20260504032632 54 239 16.0 25.0 0.00 0.01 0.00
20260504032131 54 247 16.0 25.0 0.00 0.01 0.00
20260504031632 54 238 17.0 22.0 0.00 0.01 0.00
20260504031630 54 238 17.0 22.0 0.00 0.01 0.00
20260504031129 54 238 17.0 19.0 0.00 0.01 0.00
20260504030628 54 229 13.0 19.0 0.00 0.01 0.00
20260504030127 55 240 12.0 19.0 0.00 0.01 0.00
20260504025125 55 228 12.0 18.0 0.00 0.01 0.00
20260504024624 55 229 11.0 18.0 0.00 0.01 0.00
20260504024123 56 231 10.0 18.0 0.00 0.01 0.00
20260504023622 56 235 13.0 18.0 0.00 0.01 0.00
20260504023121 57 204 11.0 14.0 0.00 0.01 0.00
20260504022620 57 215 8.0 14.0 0.00 0.01 0.00
20260504022119 58 217 10.0 14.0 0.00 0.01 0.00
20260504020116 61 226 11.0 14.0 0.00 0.01 0.00
20260504015615 61 228 10.0 12.0 0.00 0.01 0.00
20260504015119 61 243 10.0 12.0 0.00 0.01 0.00
20260504014111 62 221 9.0 11.0 0.00 0.01 0.00
20260504013610 62 236 7.0 11.0 0.00 0.01 0.00
20260504012108 62 211 8.0 10.0 0.00 0.01 0.00
20260504011105 63 236 8.0 10.0 0.00 0.01 0.00
20260504010604 63 239 7.0 10.0 0.00 0.01 0.00
20260504010104 63 247 8.0 10.0 0.00 0.01 0.00
20260504005602 63 238 8.0 10.0 0.00 0.01 0.00
20260504005104 63 249 8.0 10.0 0.00 0.01 0.00
20260504004600 64 259 7.0 9.0 0.00 0.01 0.00
20260504004059 64 247 6.0 10.0 0.00 0.01 0.00
20260504003558 64 245 7.0 10.0 0.00 0.01 0.00
20260504003058 64 247 7.0 10.0 0.00 0.01 0.00
20260504002055 64 252 7.0 7.0 0.00 0.01 0.00
20260504001554 64 249 5.0 6.0 0.00 0.01 0.00
20260504001053 64 246 5.0 5.0 0.00 0.01 0.00
20260504000552 64 259 4.0 5.0 0.00 0.01 0.00
20260503235049 64 250 4.0 5.0 0.00 0.01 0.00
20260503234548 63 284 4.0 5.0 0.00 0.01 0.00
20260503234047 63 273 4.0 5.0 0.00 0.01 0.00
20260503233547 63 271 4.0 6.0 0.00 0.01 0.00
20260503233045 63 275 3.0 6.0 0.00 0.01 0.00
20260503231041 63 274 5.0 7.0 0.00 0.01 0.00
20260503230039 63 264 5.0 6.0 0.00 0.01 0.00
20260503225037 63 281 5.0 7.0 0.00 0.01 0.00
20260503224536 63 270 6.0 7.0 0.00 0.01 0.00
20260503223033 63 273 5.0 7.0 0.00 0.01 0.00
20260503222532 63 263 5.0 7.0 0.00 0.01 0.00
20260503221530 63 254 6.0 6.0 0.00 0.01 0.00
20260503220528 62 252 5.0 6.0 0.00 0.01 0.00
20260503220028 62 267 4.0 6.0 0.00 0.01 0.00
20260503215527 62 257 3.0 6.0 0.00 0.01 0.00
20260503215027 62 281 4.0 6.0 0.00 0.01 0.00
20260503214023 62 278 4.0 7.0 0.00 0.01 0.00
20260503213522 62 256 5.0 7.0 0.00 0.01 0.00
20260503213021 62 270 5.0 7.0 0.00 0.01 0.01
20260503212520 62 270 5.0 7.0 0.00 0.01 0.01
20260503212020 62 275 6.0 6.0 0.00 0.01 0.01
20260503211519 62 274 5.0 6.0 0.00 0.01 0.01
20260503211019 62 284 5.0 6.0 0.00 0.01 0.01
20260503210519 61 271 5.0 6.0 0.00 0.01 0.01
20260503205517 61 268 5.0 6.0 0.00 0.01 0.01
20260503205013 61 268 4.0 6.0 0.00 0.01 0.01
20260503204512 61 285 6.0 7.0 0.00 0.01 0.01
20260503204011 61 261 5.0 7.0 0.00 0.01 0.01
20260503203514 61 271 5.0 7.0 0.00 0.01 0.01
20260503202509 60 288 4.0 6.0 0.00 0.01 0.01
20260503201005 60 303 4.0 5.0 0.00 0.01 0.01
20260503200505 59 301 4.0 6.0 0.00 0.01 0.01
20260503200003 59 288 3.0 6.0 0.00 0.01 0.01
20260503195502 59 317 4.0 6.0 0.00 0.01 0.01
20260503195001 59 296 5.0 5.0 0.00 0.01 0.01
20260503192957 59 303 3.0 8.0 0.00 0.01 0.01
20260503192457 59 305 0.0 8.0 0.00 0.01 0.01
20260503191955 59 287 4.0 8.0 0.00 0.01 0.01
20260503185951 59 288 5.0 7.0 0.00 0.01 0.01
20260503185450 59 281 6.0 7.0 0.00 0.01 0.01
20260503184950 59 282 6.0 6.0 0.00 0.01 0.01
20260503183947 59 275 5.0 6.0 0.00 0.01 0.01
20260503183446 59 268 4.0 6.0 0.00 0.01 0.01
20260503182947 59 274 5.0 6.0 0.00 0.01 0.01
20260503182444 59 282 5.0 6.0 0.00 0.01 0.01
20260503181943 60 264 4.0 6.0 0.00 0.01 0.01
20260503181442 60 274 4.0 5.0 0.00 0.01 0.01
20260503180941 60 250 4.0 8.0 0.00 0.01 0.01
20260503180440 60 256 4.0 8.0 0.00 0.01 0.01
20260503174937 60 267 7.0 8.0 0.00 0.01 0.01
20260503174437 61 243 7.0 8.0 0.00 0.01 0.01
20260503174028 61 260 6.0 8.0 0.00 0.01 0.01
20260503173935 61 260 6.0 8.0 0.00 0.01 0.01
20260503173434 60 253 5.0 8.0 0.00 0.01 0.01
20260503172933 61 268 4.0 7.0 0.00 0.01 0.01
20260503172432 60 9 5.0 7.0 0.00 0.01 0.01
20260503171430 59 357 7.0 9.0 0.00 0.01 0.01
20260503170428 58 14 5.0 8.0 0.00 0.01 0.01
20260503150905 52 352 3.0 6.0 0.00 0.01 0.01
20260503150404 52 338 1.0 4.0 0.00 0.01 0.01
20260503131342 50 0 0.0 0.0 0.01 0.01 0.01
20260503130841 50 0 0.0 0.0 0.01 0.01 0.01
20260503130341 49 0 0.0 0.0 0.01 0.01 0.01
20260503110817 50 0 0.0 0.0 0.00 0.00 0.00
20260503110316 50 0 0.0 0.0 0.00 0.00 0.00
20260503090252 49 0 0.0 0.0 0.00 0.01 0.00
20260503080741 50 0 0.0 0.0 0.00 0.01 0.00
20260503080356 50 0 0.0 0.0 0.00 0.01 0.00
20260503080240 50 0 0.0 0.0 0.00 0.01 0.00
20260503072232 50 0 0.0 4.0 0.00 0.01 0.00
20260503071231 50 159 0.0 4.0 0.00 0.01 0.00